This demonstration page uses our WeatherBlox Daily Observations layout. Learn more.

Left ArrowRight Arrow

Hourly Observations for December 4, 2022

Temp ( °F °C ) Dew Point ( °F °C ) Humidity (%) Winds ( mph kmh ) Pressure ( in mb ) Visibility ( mi km ) Precip ( " mm )
12:55 am 00:55 Clear 25 -4.1 11 -11.8 55 55 S 6 9 30.35 1028 10 16 0.00 0.00
1:55 am 01:55 Clear 24 -4.2 11 -11.7 56 56 S 6 9 30.34 1027 10 16 0.00 0.00
2:55 am 02:55 Clear 19 -7 10 -12.1 67 67 SE 6 9 30.32 1027 10 16 0.00 0.00
3:55 am 03:55 Clear 20 -6.9 11 -11.8 68 68 Calm 30.33 1027 10 16 0.00 0.00
4:55 am 04:55 undefined 19 -7.5 10 -12 70 70 SSE 3 6 30.32 1027 10 16 0.00 0.00
5:55 am 05:55 Clear 19 -7.4 11 -11.9 70 70 Calm 30.31 1026 10 16 0.00 0.00
6:55 am 06:55 Clear 18 -7.8 11 -11.8 73 73 Calm 30.29 1026 10 16 0.00 0.00
7:55 am 07:55 Sunny 19 -7.2 12 -11.2 73 73 Calm 30.30 1026 10 16 0.00 0.00
8:55 am 08:55 Sunny 22 -5.5 13 -10.7 67 67 Calm 30.29 1026 10 16 0.00 0.00
9:55 am 09:55 Sunny 28 -2.5 15 -9.6 58 58 S 5 7 30.27 1025 10 16 0.00 0.00
10:55 am 10:55 Sunny 34 1.1 14 -10.1 43 43 WSW 6 9 30.24 1024 10 16 0.00 0.00
11:55 am 11:55 Sunny 38 3.6 13 -10.5 35 35 W 5 7 30.20 1023 10 16 0.00 0.00
12:55 pm 12:55 Sunny 42 5.7 13 -10.5 30 30 S 6 9 30.15 1021 10 16 0.00 0.00
1:55 pm 13:55 Sunny 46 7.6 14 -10.2 27 27 Calm 30.12 1020 10 16 0.00 0.00
2:55 pm 14:55 Sunny 48 9 13 -10.5 24 24 SSW 9 15 30.09 1019 10 16 0.00 0.00
3:55 pm 15:55 Sunny 47 8.6 13 -10.3 25 25 S 7 11 30.07 1018 10 16 0.00 0.00
4:55 pm 16:55 Sunny 43 6 13 -10.7 29 29 S 6 9 30.05 1018 10 16 0.00 0.00
5:55 pm 17:55 Clear 39 4 13 -10.8 33 33 S 5 7 30.04 1017 10 16 0.00 0.00
6:55 pm 18:55 Clear 37 2.7 13 -10.6 37 37 SSW 6 9 30.03 1017 10 16 0.00 0.00
7:55 pm 19:55 Clear 34 0.9 13 -10.3 43 43 S 5 7 30.01 1016 10 16 0.00 0.00
8:55 pm 20:55 Clear 33 0.6 14 -10 45 45 SSW 3 6 30.00 1016 10 16 0.00 0.00
9:55 pm 21:55 Clear 28 -2.3 13 -10.8 52 52 SSE 5 7 29.97 1015 10 16 0.00 0.00
10:55 pm 22:55 Clear 29 -1.5 14 -10.1 52 52 Calm 29.96 1015 10 16 0.00 0.00
11:55 pm 23:55 undefined 26 -3.5 14 -10.2 60 60 S 5 7 29.92 1013 10 16 0.00 0.00

Powered by AerisWeather